User: anonymous   Login
Location: Arbon
(43.0005°N, 0.7472°E)
Time: 11:38:54
(UTC+00:00)
Language:

Cosmos 2322 Rocket - Orbit

View from above orbital plane
View from above orbital plane
View from above satellite
View from above satellite

Ground track
Ground track

The orbit data is extracted from the following two-line orbital elements,

1 23705U 95058B   20293.85278667 -.00000045 +00000-0 +11893-5 0  9996
2 23705 071.0232 347.9477 0014535 242.0756 117.8896 14.15137233289873
Epoch (UTC): 19 October 2020 20:28:00
Eccentricity: 0.0014535
inclination: 71.0232°
perigee height: 831 km
apogee height: 852 km
right ascension of ascending node: 347.9477°
argument of perigee: 242.0756°
revolutions per day: 14.15137233
mean anomaly at epoch: 117.8896°
orbit number at epoch: 28987

The dashed part of the orbit path shows where the satellite is in the earth's shadow,  

DLR